* Astronomy

Members Login
Username 
 
Password 
    Remember Me  
Post Info TOPIC: Asteroid 2012 HC25


L

Posts: 131433
Date:
Asteroid 2012 HC25
Permalink  
 


Orbital elements:
2012 HC25                                                Earth MOID = 0.0184 AU
Epoch 2012 Mar. 14.0 TT = JDT 2456000.5                 MPC
M  10.94679              (2000.0)            P               Q
n   0.74235523     Peri.  316.59356     -0.90996481     -0.41311131
a   1.2079850      Node   199.09728     +0.40421210     -0.86417500
e   0.1877422      Incl.    6.33458     +0.09261004     -0.28729884
P   1.33           H   25.8           G   0.15           U   8

MPEC 2012 - H78



__________________
Page 1 of 1  sorted by
 
Quick Reply

Please log in to post quick replies.



Create your own FREE Forum
Report Abuse
Powered by ActiveBoard